ELECTRON KICK STAGE R/B, 63359

Orbit data source: Space-Track

ELECTRON KICK STAGE R/B, 63359 is space debris in SSO originally from a launch on Wed, 26 Mar 2025 UTC launched from the Rocket Lab Launch Complex (RLLC). Debris objects in space refer to the collection of defunct objects orbiting the Earth. Examples of debris include non-operational satellites, rocket bodies, and fragments generated from explosions, collisions, or faulty payload assembly.

Loading next visibility...
Identifier
63359, 2025-061J
Orbit
SSO
Country
Flag of USUS
Related business
Manufacturer
Rocket Lab
Mission
Spacecraft
Bus & Motor
KICK STAGE, CURIE
Mass
~50 kg wet, ~50 kg dry
Launch date (UTC)
2025-03-26 (6 months ago)
Launch vehicle
Unknown
Launch site
Rocket Lab Launch Complex (RLLC)
Object type
Payload
Rocket body
Debris
Shape & HBR
Cyl, Unknown HBR
Radar Cross Section
2.827 m², Medium (>0.1 m² and < 1m²)

Expand to show TLE details & history
Last TLE update: 13 hours ago

TLE from 13 hours ago
0 ELECTRON KICK STAGE R/B
1 63359U 25061J   25260.93689623  .00015382  00000-0  62085-3 0  9994
2 63359  97.5284 237.5003 0048127  46.4154 314.1062 15.23791938 26653
Epoch: 2025-09-17T22:29Z
TLE epoch observation values (Epoch: 2025-09-17T22:29:07.834Z)
Latitude
Longitude
-96.88803°
Altitude
474.565 km
Speed
7.641 km/s
True Right ascension
15h 50m 00s
True Declination
0° 00' 00"
Sunlit
Object was in daylight at epoch
Visualization orbit readout
Latitude
Unknown
Longitude
Unknown
Altitude
Unknown
Speed
Unknown
Apparent Right ascension
Unknown
Apparent Declination
Unknown
Sunlit
N/A
Visualization observer readout
Local Sidereal Time
03:59:16
Azimuth
Unknown
Elevation
Unknown
Doppler factor
Unknown
Orbital elements
Apogee altitude
524.442 km
Perigee altitude
458.32 km
Semi-major axis
6,869.518 km
Eccentricity
0.00481
Inclination
97.5284°
RAAN
237.5003°
Arg. of periapsis
46.4154°
True anomaly
313.70854°
Mean anomaly
314.1062°
Eccentric anomaly
313.90754°
Mean motion
3.81201 °/min
Orbital period
94.44 mins
BSTAR
0.00062085
Loading maneuver chart data...
Computing Atmospheric mass density...
Loading historical data...
Loading historical data...
Loading historical data...
Loading historical data...
Loading historical data...
Loading historical data...
Loading historical data...

Documentation

Showing up to 5 results
|